User: anonymous   Login
Location: Asheville, NC
(35.6000°N, 82.5500°W)
Time: 03:36:47
(UTC-04:00)
Language:

SRMSAT - Orbit

View from above orbital plane
View from above orbital plane
View from above satellite
View from above satellite

Ground track
Ground track

The orbit data is extracted from the following two-line orbital elements,

1 37841U 11058D   18110.91805160 +.00000305 +00000-0 +22589-4 0  9997
2 37841 019.9723 072.5357 0011789 220.6924 177.3849 14.10603835336693
Epoch (UTC): 20 April 2018 22:01:59
Eccentricity: 0.0011789
inclination: 19.9723°
perigee height: 849 km
apogee height: 866 km
right ascension of ascending node: 72.5357°
argument of perigee: 220.6924°
revolutions per day: 14.10603835
mean anomaly at epoch: 177.3849°
orbit number at epoch: 33669

The dashed part of the orbit path shows where the satellite is in the earth's shadow,  

DLR